Appleton, MN

5:32 AM CST on December 03, 2016 (GMT -0600)
Appleton Municipal

Weather History for KAQP - March, 2013

Change the Weather History Date:

Sunday, March 24, 2013

  Actual Average Record
Temperature  
Mean Temperature 24 °F -  
Max Temperature 33 °F 39 °F 73 °F (2012)
Min Temperature 15 °F 21 °F -2 °F (2011)
Degree Days  
Heating Degree Days 41    
Moisture  
Dew Point 19 °F    
Average Humidity 84    
Maximum Humidity 93    
Minimum Humidity 75    
Precipitation  
Precipitation 0.00 in - - ()
Sea Level Pressure  
Sea Level Pressure 30.10 in    
Wind  
Wind Speed 11 mph (NNW)    
Max Wind Speed 23 mph    
Max Gust Speed 26 mph    
Visibility 8 miles    
Events Rain , Snow    
Averages and records for this station are not official NWS values.
T = Trace of Precipitation, MM = Missing Value Source: NWS Daily Summary

Daily Weather History Graph

Daily Weather History Graph

Search for Another Location

Airport or City:

Trip Planner

Search our weather history database for the weather conditions in past years. The results will help you decide how hot, cold, wet, or windy it might be!

Date:

Astronomy

Mar. 24, 2013 Rise Set
Actual Time 7:19 AM CDT 7:42 PM CDT
Civil Twilight 6:49 AM CDT 8:11 PM CDT
Nautical Twilight 6:14 AM CDT 8:46 PM CDT
Astronomical Twilight 5:38 AM CDT 9:22 PM CDT
Moon 5:05 PM CDT (3/24) 5:36 AM CDT (3/24)
Length of Visible Light 13h 22m
Length of Day
12h 23m
Waxing Gibbous, 92% of the Moon is Illuminated
Mar 24
Waxing Gibbous
Mar 27
Full
Apr 2
Last Quarter
Apr 10
New
Apr 18
First Quarter

Hourly Weather History & Observations

Time (CDT) Temp. Windchill Dew Point Humidity Pressure Visibility Wind Dir Wind Speed Gust Speed Precip Events Conditions
12:13 AM 17.6 °F 6.4 °F 15.8 °F 93% 30.16 in 10.0 mi NW 9.2 mph - N/A   Clear
12:33 AM 17.6 °F 7.3 °F 15.8 °F 93% 30.15 in 10.0 mi WNW 8.1 mph - N/A   Clear
12:53 AM 17.6 °F 8.2 °F 15.8 °F 93% 30.15 in 10.0 mi WNW 6.9 mph - N/A   Clear
1:13 AM 19.4 °F 10.4 °F 15.8 °F 86% 30.15 in 10.0 mi NW 6.9 mph - N/A   Clear
1:34 AM 17.6 °F 7.3 °F 15.8 °F 93% 30.15 in 10.0 mi NW 8.1 mph - N/A   Clear
1:53 AM 17.6 °F 7.3 °F 15.8 °F 93% 30.14 in 10.0 mi NW 8.1 mph - N/A   Clear
2:33 AM 17.6 °F 5.7 °F 15.8 °F 93% 30.14 in 10.0 mi NW 10.4 mph - N/A   Clear
2:53 AM 17.6 °F 7.3 °F 14.0 °F 86% 30.14 in 10.0 mi NW 8.1 mph - N/A   Clear
3:13 AM 17.6 °F 5.7 °F 12.2 °F 79% 30.13 in 10.0 mi NW 10.4 mph - N/A   Clear
3:33 AM 17.6 °F 7.3 °F 14.0 °F 86% 30.13 in 10.0 mi NW 8.1 mph - N/A   Clear
3:54 AM 17.6 °F 5.7 °F 14.0 °F 86% 30.12 in 10.0 mi NW 10.4 mph - N/A   Clear
4:13 AM 17.6 °F 7.3 °F 14.0 °F 86% 30.12 in 10.0 mi WNW 8.1 mph - N/A   Clear
4:33 AM 17.6 °F 9.3 °F 12.2 °F 79% 30.12 in 10.0 mi WNW 5.8 mph - N/A   Clear
4:54 AM 17.6 °F 6.4 °F 12.2 °F 79% 30.11 in 10.0 mi NW 9.2 mph - N/A   Clear
5:13 AM 17.6 °F 6.4 °F 14.0 °F 86% 30.12 in 10.0 mi NW 9.2 mph - N/A   Scattered Clouds
5:34 AM 17.6 °F 7.3 °F 12.2 °F 79% 30.11 in 10.0 mi NW 8.1 mph - N/A   Scattered Clouds
5:53 AM 17.6 °F 7.3 °F 14.0 °F 86% 30.11 in 10.0 mi NW 8.1 mph - N/A   Scattered Clouds
6:13 AM 17.6 °F 5.7 °F 12.2 °F 79% 30.11 in 10.0 mi NW 10.4 mph - N/A   Mostly Cloudy
6:33 AM 15.8 °F 4.2 °F 12.2 °F 86% 30.11 in 10.0 mi NW 9.2 mph - N/A   Overcast
6:54 AM 15.8 °F 4.2 °F 12.2 °F 86% 30.11 in 10.0 mi NW 9.2 mph - N/A   Mostly Cloudy
7:14 AM 15.8 °F 3.4 °F 12.2 °F 86% 30.10 in 10.0 mi NW 10.4 mph - N/A   Scattered Clouds
7:33 AM 15.8 °F 3.4 °F 12.2 °F 86% 30.10 in 10.0 mi NW 10.4 mph - N/A   Scattered Clouds
7:53 AM 15.8 °F 3.4 °F 12.2 °F 86% 30.10 in 10.0 mi NW 10.4 mph - N/A   Scattered Clouds
8:13 AM 15.8 °F 4.2 °F 12.2 °F 86% 30.10 in 10.0 mi NW 9.2 mph - N/A   Scattered Clouds
8:33 AM 15.8 °F 5.1 °F 12.2 °F 86% 30.10 in 10.0 mi NW 8.1 mph - N/A   Overcast
8:53 AM 15.8 °F 6.1 °F 12.2 °F 86% 30.09 in 10.0 mi NNW 6.9 mph - N/A   Scattered Clouds
9:13 AM 15.8 °F 5.1 °F 12.2 °F 86% 30.09 in 10.0 mi NNW 8.1 mph - N/A   Clear
9:33 AM 17.6 °F 7.3 °F 14.0 °F 86% 30.08 in 10.0 mi NNW 8.1 mph - N/A   Clear
9:53 AM 19.4 °F 6.6 °F 15.8 °F 86% 30.08 in 10.0 mi NNW 12.7 mph - N/A   Clear
10:13 AM 19.4 °F 7.9 °F 15.8 °F 86% 30.08 in 10.0 mi NNW 10.4 mph - N/A   Clear
10:33 AM 21.2 °F 9.5 °F 15.8 °F 80% 30.08 in 10.0 mi NNW 11.5 mph - N/A   Scattered Clouds
10:53 AM 21.2 °F 10.1 °F 15.8 °F 80% 30.08 in 10.0 mi NNW 10.4 mph - N/A   Mostly Cloudy
11:14 AM 23.0 °F 12.4 °F 17.6 °F 80% 30.08 in 7.0 mi NNW 10.4 mph - N/A   Mostly Cloudy
11:33 AM 23.0 °F 12.4 °F 17.6 °F 80% 30.08 in 7.0 mi NNW 10.4 mph - N/A   Overcast
11:53 AM 24.8 °F 14.0 °F 19.4 °F 80% 30.08 in 4.0 mi NNW 11.5 mph - N/A Snow Light Snow
12:14 PM 24.8 °F 13.4 °F 19.4 °F 80% 30.08 in 2.5 mi North 12.7 mph - N/A Snow Light Snow
12:34 PM 26.6 °F 15.2 °F 21.2 °F 80% 30.08 in 2.5 mi NNW 13.8 mph - N/A Snow Light Snow
12:53 PM 26.6 °F 16.2 °F 21.2 °F 80% 30.08 in 2.0 mi North 11.5 mph - N/A Snow Light Snow
1:13 PM 26.6 °F - 21.2 °F 80% 30.08 in 3.0 mi North - - N/A Snow Light Snow
1:33 PM 28.4 °F 18.5 °F 23.0 °F 80% 30.07 in 3.0 mi North 11.5 mph - N/A Snow Light Snow
1:53 PM 28.4 °F 18.5 °F 23.0 °F 80% 30.06 in 3.0 mi North 11.5 mph - N/A Snow Light Snow
2:13 PM 28.4 °F 19.1 °F 24.8 °F 86% - 2.0 mi North 10.4 mph - N/A Snow Light Snow
2:33 PM 30.2 °F 21.3 °F 24.8 °F 80% 30.06 in 2.5 mi North 10.4 mph - N/A Snow Light Snow
2:54 PM 30.2 °F 20.8 °F 26.6 °F 86% 30.06 in 3.0 mi North 11.5 mph - N/A Snow Light Snow
3:14 PM 30.2 °F 20.2 °F 26.6 °F 86% 30.06 in 2.0 mi North 12.7 mph - N/A Snow Light Snow
3:33 PM 32.0 °F 23.6 °F 26.6 °F 80% 30.06 in 5.0 mi North 10.4 mph - N/A Snow Light Snow
3:53 PM 33.8 °F 24.8 °F 26.6 °F 75% 30.06 in 5.0 mi North 12.7 mph - N/A Rain Light Rain
4:13 PM 32.0 °F 22.5 °F 26.6 °F 80% 30.06 in 7.0 mi North 12.7 mph - N/A Rain Light Rain
4:33 PM 32.0 °F 21.2 °F 26.6 °F 80% 30.06 in 4.0 mi North 16.1 mph - N/A Snow Light Snow
4:53 PM 30.2 °F 17.8 °F 26.6 °F 86% 30.06 in 10.0 mi North 19.6 mph - N/A   Overcast
5:13 PM 30.2 °F 17.8 °F 26.6 °F 86% 30.07 in 7.0 mi North 19.6 mph - N/A   Overcast
5:34 PM 30.2 °F 17.8 °F 26.6 °F 86% 30.07 in 10.0 mi NNW 19.6 mph - N/A   Overcast
5:53 PM 30.2 °F 17.4 °F 24.8 °F 80% 30.07 in 10.0 mi North 20.7 mph - N/A   Overcast
6:13 PM 30.2 °F 17.4 °F 23.0 °F 75% 30.08 in 10.0 mi North 20.7 mph - N/A   Overcast
6:34 PM 30.2 °F 17.8 °F 23.0 °F 75% 3.00 in 10.0 mi North 19.6 mph - N/A   Overcast
6:53 PM 28.4 °F 14.4 °F 23.0 °F 80% 30.09 in 10.0 mi NNW 23.0 mph - N/A   Overcast
7:14 PM 28.4 °F 14.7 °F 23.0 °F 80% 30.09 in 10.0 mi North 21.9 mph - N/A   Overcast
7:34 PM 26.6 °F 12.4 °F 23.0 °F 86% 30.10 in 10.0 mi North 21.9 mph - N/A   Overcast
7:53 PM 26.6 °F 12.7 °F 21.2 °F 80% 30.10 in 10.0 mi NNW 20.7 mph - N/A   Overcast
8:13 PM 26.6 °F 12.4 °F 21.2 °F 80% 30.10 in 10.0 mi NNW 21.9 mph - N/A   Overcast
8:33 PM 26.6 °F 13.1 °F 21.2 °F 80% 30.11 in 7.0 mi NNW 19.6 mph 26.5 mph N/A   Overcast
8:53 PM 26.6 °F 12.4 °F 21.2 °F 80% 30.11 in 10.0 mi NNW 21.9 mph - N/A   Overcast
9:14 PM 24.8 °F 10.3 °F 21.2 °F 86% 30.12 in 7.0 mi NNW 20.7 mph - N/A   Overcast
9:33 PM 24.8 °F 10.7 °F 21.2 °F 86% 30.12 in 5.0 mi NNW 19.6 mph - N/A   Overcast
9:53 PM 24.8 °F 10.3 °F 21.2 °F 86% 30.13 in 7.0 mi NNW 20.7 mph 26.5 mph N/A   Overcast
10:13 PM 24.8 °F 10.0 °F 21.2 °F 86% 30.13 in 3.0 mi NNW 21.9 mph 26.5 mph N/A Snow Light Snow
10:33 PM 24.8 °F 11.5 °F 21.2 °F 86% 30.13 in 4.0 mi NNW 17.3 mph - N/A Snow Light Snow
10:53 PM 24.8 °F 10.0 °F 21.2 °F 86% 30.13 in 4.0 mi NNW 21.9 mph - N/A   Overcast
11:13 PM 24.8 °F 10.7 °F 21.2 °F 86% 30.13 in 5.0 mi NNW 19.6 mph - N/A Snow Light Snow
11:33 PM 24.8 °F 10.0 °F 21.2 °F 86% 30.13 in 5.0 mi NNW 21.9 mph - N/A Snow Light Snow
11:53 PM 24.8 °F 10.7 °F 21.2 °F 86% 30.13 in 7.0 mi NNW 19.6 mph - N/A   Overcast